Погода в Попасной

Украина / Луганская область     48°38′01″N   38°22′35″E
темп.,
°C
ветер,
м/с
пор.,
м/с
влажн.,
%
обл.,
%
осадки,
мм/ч
давл.,
гПа
погр.,
м
16 сентября, чт
чт1600:00+13с224013 0.0 101611
03:00+11ссз114392 0.0 101610
06:00+10зсз1145100 0.0 101710
09:00+15ссз3437100 0.0 1017441
12:00+19с4432100 0.0 10171343
15:00+21с34284 0.0 10161757
18:00+18с34350 0.0 101664
21:00+13св22450 0.0 101826
17 сентября, пт
пт1700:00+11в11490 0.0 101810
03:00+10в115367 0.0 101910
06:00+9вюв11575 0.0 101810
09:00+16вюв114147 0.0 1018336
12:00+20ю123110 0.0 10171564
15:00+22зюз232592 0.0 10151875
18:00+19зсз113217 0.0 101411
21:00+15всв123739 0.0 101511
18 сентября, сб
сб1800:00+14ююв22415 0.0 101514
03:00+13юз1145100 0.0 101410
06:00+12ююв115050 0.0 101510
09:00+17в333776 0.0 1015389
12:00+22юв452753 0.0 10141505
15:00+25ююв452963 0.0 10132479
18:00+22ю4735100 0.0 1012213
21:00+18юв234498 0.0 101336
19 сентября, вс
вс1900:00+15вюв594699 0.0 1013229
03:00+16в5948100 0.0 1013294
06:00+15в3754100 0.1 1013233
09:00+15в5858100 0.4 1012336
12:00+20ю4760100 0.0 1011925
15:00+22ю7846100 0.0 10101981
18:00+15всв2287100 1.5 1011121
21:00+15ююв3794100 8.4 1010457
20 сентября, пн
пн2000:00+15ююв369488 1.8 1009286
03:00+15ю38958 2.5 1008254
06:00+14ю24963 0.1 100879
09:00+18юз5774100 0.7 1008453
12:00+22зюз5651100 0.2 10081253
15:00+23зюз69405 0.3 10092354
18:00+20зюз224686 0.0 100815
21:00+17зюз5864100 0.0 1010330